Nagpur Sonegaon, India

7:13 AM IST on August 18, 2017 (GMT +0530)
Nagpur

Weather History for VANP - October, 2011

Change the Weather History Date:

Friday, October 14, 2011

  Actual Average Record
Temperature  
Mean Temperature 84 °F -  
Max Temperature 95 °F 89 °F - ()
Min Temperature 72 °F 64 °F - ()
Cooling Degree Days 18    
Growing Degree Days 34 (Base 50)    
Moisture  
Dew Point 67 °F    
Average Humidity 56    
Maximum Humidity 84    
Minimum Humidity 22    
Precipitation  
Precipitation 0.00 in 0.06 in - ()
Sea Level Pressure  
Sea Level Pressure 29.83 in    
Wind  
Wind Speed 3 mph ()    
Max Wind Speed 7 mph    
Max Gust Speed -    
Visibility 2.7 miles    
Events      
T = Trace of Precipitation, MM = Missing Value Source: Averaged Metar Reports

Daily Weather History Graph

Daily Weather History Graph

Search for Another Location

Airport or City:

Trip Planner

Search our weather history database for the weather conditions in past years. The results will help you decide how hot, cold, wet, or windy it might be!

Date:

Astronomy

Oct. 14, 2011 Rise Set
Actual Time 6:08 AM IST 5:50 PM IST
Civil Twilight 5:46 AM IST 6:13 PM IST
Nautical Twilight 5:20 AM IST 6:39 PM IST
Astronomical Twilight 4:54 AM IST 7:04 PM IST
Moon 7:10 PM IST (10/14) 7:48 AM IST (10/14)
Length of Visible Light 12h 26m
Length of Day
11h 42m
Waning Gibbous, 96% of the Moon is Illuminated
Oct 14
Waning Gibbous
Oct 20
Last Quarter
Oct 27
New
Nov 2
First Quarter
Nov 11
Full

Hourly Weather History & Observations

Time (IST) Temp. Heat Index Dew Point Humidity Pressure Visibility Wind Dir Wind Speed Gust Speed Precip Events Conditions
12:10 AM 77.0 °F - 69.8 °F 78% 29.86 in 2.5 mi NW 2.3 mph - N/A   Unknown
12:40 AM - - - N/A% - 2.5 mi NNW 1.2 mph - N/A   Haze
1:10 AM 77.0 °F - 69.8 °F 78% 29.83 in 2.5 mi West 2.3 mph - N/A   Haze
2:10 AM 75.2 °F - 69.8 °F 83% 29.83 in 2.5 mi NNW 2.3 mph - N/A   Haze
2:30 AM 75 °F - 71 °F 84% 29.78 in 1 mi Calm Calm - -   Haze
4:10 AM 77.0 °F - 69.8 °F 78% 29.80 in 1.6 mi NNW 6.9 mph - N/A   Haze
5:10 AM 75.2 °F - 68.0 °F 78% 29.83 in 1.6 mi North 4.6 mph - N/A   Haze
5:30 AM 75 °F - 69 °F 77% 29.81 in 1 mi North 4.6 mph - -   Haze
6:10 AM 75.2 °F - 66.2 °F 73% 29.86 in 1.9 mi NNW 3.5 mph - N/A   Haze
8:10 AM 80.6 °F 84.6 °F 71.6 °F 74% 29.89 in 3.1 mi North 3.5 mph - N/A   Haze
8:30 AM 80 °F - 71 °F 66% 29.86 in 2 mi ENE 2.3 mph - -  
9:10 AM 86.0 °F 91.8 °F 71.6 °F 62% 29.89 in 3.7 mi NE 3.5 mph - N/A   Haze
10:10 AM 91.4 °F 98.4 °F 71.6 °F 52% 29.89 in 3.1 mi East 2.3 mph - N/A   Haze
10:40 AM 91.4 °F 96.8 °F 69.8 °F 49% 29.89 in 3.1 mi NNE 4.6 mph - N/A   Haze
11:10 AM 93.2 °F 98.8 °F 69.8 °F 46% 29.89 in 3.1 mi ENE 3.5 mph - N/A   Haze
11:30 AM 92 °F - 64 °F 29% 29.81 in 2 mi ENE 2.3 mph - -  
12:10 PM 96.8 °F 103.1 °F 69.8 °F 41% 29.86 in - North - - N/A   Unknown
12:40 PM 96.8 °F 101.8 °F 68.0 °F 39% 29.83 in 3.7 mi East 6.9 mph - N/A   Unknown
1:10 PM 96.8 °F 100.7 °F 66.2 °F 37% 29.83 in 3.7 mi East 4.6 mph - N/A   Unknown
1:30 PM 96.8 °F 100.7 °F 66.2 °F 37% 29.83 in 4.3 mi East 3.5 mph - N/A   Unknown
2:10 PM 96.8 °F 99.0 °F 64.4 °F 34% 29.80 in 4.3 mi NNE 5.8 mph - N/A   Unknown
2:30 PM 95 °F - 60 °F 22% 29.73 in 2 mi East 2.3 mph - -  
2:40 PM 95.0 °F 97.0 °F 64.4 °F 36% 29.80 in - North - - N/A   Unknown
3:10 PM 96.8 °F 100.7 °F 66.2 °F 37% 29.80 in 4.3 mi ENE 5.8 mph - N/A   Unknown
5:30 PM 88 °F - 63 °F 33% 29.72 in 2 mi ESE 3.5 mph - -   Haze
6:10 PM 86.0 °F 88.2 °F 66.2 °F 51% 29.77 in 3.1 mi East 3.5 mph - N/A   Haze
7:10 PM 84.2 °F 85.0 °F 62.6 °F 48% 29.80 in 3.1 mi East 3.5 mph - N/A   Haze
8:10 PM 82.4 °F 84.6 °F 66.2 °F 58% 29.83 in 3.1 mi SE 3.5 mph - N/A   Haze
8:30 PM 80 °F - 65 °F 51% 29.80 in 2 mi ESE 3.5 mph - -  
9:10 PM 80.6 °F 82.3 °F 64.4 °F 58% 29.83 in 3.1 mi West 3.5 mph - N/A   Haze
10:10 PM 77.0 °F - 64.4 °F 65% 29.86 in 3.1 mi West 2.3 mph - N/A   Haze
11:10 PM 78.8 °F - 64.4 °F 61% 29.86 in 2.5 mi NW 2.3 mph - N/A   Haze
11:30 PM 74 °F - 67 °F 74% 29.81 in 1 mi NW 2.3 mph - -   Haze